sat.trackr.live / text

‹ back to catalog

STARLINK-31209

NORAD 58883 · 2024-020H

PAYLOAD ACTIVE UNKNOWN

§ Identity

Operator
Country
US
Launch date
2024-01-29
Launch site
AFWTR
Launch vehicle
Mass (kg)
RCS (m²)

Purposes: comms

External: N2YO · Heavens-Above · Gunter

§ Orbital elements

Epoch: 2026-09-20T00:47:57.233184Z

Period
93.85 min
Inclination
53.1590°
Eccentricity
0.0000941
Mean motion
15.34392357 rev/d
Perigee alt
462.1 km
Apogee alt
463.4 km
Semi-major
6,840.9 km
B*
-2.0064e-5
RAAN
135.6313°
Arg perigee
105.2511°
Mean anomaly
254.8595°
Rev number
14,788

§ Raw data

STARLINK-312091 58883U 24020H   26263.03330131 -.00001054  00000+0 -20064-4 0  99902 58883  53.1590 135.6313 0000941 105.2511 254.8595 15.34392357147886

JSON: /api/v1/satellites/58883 · /tle

For live sub-satellite position, see the globe view (requires WebGL).

§ Visibility from observer

Set your observer location to see the next 7 days of passes ≥ 10°. The values pass through the URL so the page stays shareable.

No JS? Fill the form by hand. The geolocation button needs JavaScript.